Location: Brunsbüttel
(52.3892°N, 10.6138°E)
Time: 00:01:08
(UTC+00:00)

Cosmos 1633 Rocket - Pass Details

Date: 19 May 2025
Orbit: 600 x 618 km, 82.5° (Epoch: 15 June)

Event Time Altitude Azimuth Distance (km) Brightness Sun altitude
Rises 22:52:10 0° 354° (N) 2,886 8.3 -17.5°
Reaches altitude 10° 22:54:31 10° 2° (N) 1,974 6.9 -17.5°
Maximum altitude 22:58:38 39° 72° (ENE) 919 4.0 -17.5°
Enters shadow 23:00:50 23° 127° (SE) 1,309 4.4 -17.6°
